GLO1458 SBVT-SBBR

Flight info

Callsign GLO1458
Flight time 1h 39m
Altitude 38000
Route OPLOX UZ40 OPGOL
Aircraft B737/M-SDE2E3FGHIRWXY/LB1

Departure

Time 2026-04-17 03:24
Airport Eurico de Aguiar Salles International Airport (SBVT)

Arrival

Time 2026-04-17 05:03
Airport Presidente Juscelino Kubitschek International Airport (SBBR)
Time Latitude Longitude Altitude Speed Heading
2026-04-17 02:56 -20.26498 -40.28178 34 ft 0 kts 262°
2026-04-17 03:16 -20.26496 -40.28168 34 ft 4 kts 260°
2026-04-17 03:16 -20.26490 -40.28140 31 ft 4 kts 249°
2026-04-17 03:16 -20.26478 -40.28116 29 ft 4 kts 220°
2026-04-17 03:17 -20.26461 -40.28108 33 ft 1 kts 172°
2026-04-17 03:17 -20.26460 -40.28108 33 ft 1 kts 172°
2026-04-17 03:21 -20.26464 -40.28107 32 ft 2 kts 172°
2026-04-17 03:21 -20.26498 -40.28103 31 ft 8 kts 172°
2026-04-17 03:21 -20.26570 -40.28092 34 ft 13 kts 172°
2026-04-17 03:21 -20.26668 -40.28077 34 ft 16 kts 172°
2026-04-17 03:22 -20.26718 -40.28036 34 ft 9 kts 92°
2026-04-17 03:22 -20.26714 -40.27961 38 ft 11 kts 79°
2026-04-17 03:22 -20.26648 -40.27920 39 ft 13 kts 17°
2026-04-17 03:22 -20.26542 -40.27886 35 ft 18 kts 15°
2026-04-17 03:23 -20.26413 -40.27872 34 ft 20 kts 350°
2026-04-17 03:23 -20.26124 -40.27917 35 ft 78 kts 352°
2026-04-17 03:23 -20.25343 -40.28034 36 ft 147 kts 351°
2026-04-17 03:23 -20.24211 -40.28210 387 ft 172 kts 353°
2026-04-17 03:24 -20.23034 -40.28286 1261 ft 171 kts 12°
2026-04-17 03:24 -20.21977 -40.27650 1872 ft 185 kts 47°
2026-04-17 03:24 -20.21028 -40.26603 2361 ft 213 kts 45°
2026-04-17 03:24 -20.19884 -40.25477 2879 ft 228 kts 43°
2026-04-17 03:25 -20.18691 -40.24379 3805 ft 229 kts 41°
2026-04-17 03:25 -20.17415 -40.23251 4431 ft 248 kts 40°
2026-04-17 03:25 -20.15966 -40.22188 5161 ft 262 kts 23°
2026-04-17 03:25 -20.14102 -40.21937 5652 ft 282 kts 346°
2026-04-17 03:26 -20.12393 -40.22861 6639 ft 276 kts 316°
2026-04-17 03:26 -20.11582 -40.23930 7192 ft 277 kts 297°
2026-04-17 03:26 -20.10862 -40.25806 8209 ft 275 kts 287°
2026-04-17 03:26 -20.10327 -40.27773 9083 ft 281 kts 284°
2026-04-17 03:27 -20.09829 -40.29856 9677 ft 296 kts 284°
2026-04-17 03:27 -20.09309 -40.31988 10554 ft 297 kts 284°
2026-04-17 03:27 -20.08758 -40.34107 11446 ft 299 kts 286°
2026-04-17 03:27 -20.08125 -40.36243 12172 ft 307 kts 285°
2026-04-17 03:28 -20.07519 -40.38445 12970 ft 311 kts 284°
2026-04-17 03:28 -20.06922 -40.40656 13861 ft 312 kts 286°
2026-04-17 03:28 -20.06229 -40.42856 14648 ft 314 kts 288°
2026-04-17 03:28 -20.05500 -40.45046 15462 ft 315 kts 288°
2026-04-17 03:29 -20.04754 -40.47259 16202 ft 319 kts 288°
2026-04-17 03:29 -20.04003 -40.49492 16993 ft 322 kts 289°
2026-04-17 03:29 -20.03249 -40.51743 17768 ft 325 kts 289°
2026-04-17 03:29 -20.02490 -40.54018 18509 ft 328 kts 289°
2026-04-17 03:30 -20.01726 -40.56314 19177 ft 330 kts 288°
2026-04-17 03:30 -20.00959 -40.58624 19866 ft 333 kts 288°
2026-04-17 03:30 -20.00188 -40.60950 20555 ft 335 kts 288°
2026-04-17 03:30 -19.99409 -40.63298 21248 ft 338 kts 288°
2026-04-17 03:31 -19.98626 -40.65661 21943 ft 340 kts 288°
2026-04-17 03:31 -19.97837 -40.68040 22591 ft 345 kts 287°
2026-04-17 03:31 -19.97020 -40.70508 22720 ft 364 kts 288°
2026-04-17 03:31 -19.96161 -40.73100 22857 ft 380 kts 288°
2026-04-17 03:32 -19.95264 -40.75804 23060 ft 393 kts 288°
2026-04-17 03:32 -19.94346 -40.78563 23515 ft 398 kts 288°
2026-04-17 03:32 -19.93423 -40.81337 24030 ft 398 kts 288°
2026-04-17 03:32 -19.92497 -40.84116 24539 ft 399 kts 288°
2026-04-17 03:33 -19.91569 -40.86902 24992 ft 402 kts 288°
2026-04-17 03:33 -19.90634 -40.89707 25439 ft 404 kts 288°
2026-04-17 03:33 -19.89693 -40.92531 25866 ft 406 kts 288°
2026-04-17 03:33 -19.88748 -40.95366 26296 ft 409 kts 288°
2026-04-17 03:34 -19.87808 -40.98184 26695 ft 411 kts 288°
2026-04-17 03:34 -19.86852 -41.01048 27145 ft 413 kts 288°
2026-04-17 03:34 -19.85850 -41.03917 27574 ft 416 kts 292°
2026-04-17 03:34 -19.84526 -41.06661 27978 ft 420 kts 297°
2026-04-17 03:35 -19.83058 -41.09353 28375 ft 422 kts 298°
2026-04-17 03:35 -19.81562 -41.12051 28767 ft 425 kts 298°
2026-04-17 03:35 -19.80077 -41.14773 29142 ft 427 kts 297°
2026-04-17 03:35 -19.78611 -41.17521 29503 ft 429 kts 297°
2026-04-17 03:36 -19.75688 -41.23070 30198 ft 433 kts 296°
2026-04-17 03:36 -19.74228 -41.25873 30497 ft 435 kts 296°
2026-04-17 03:36 -19.72765 -41.28688 30798 ft 436 kts 296°
2026-04-17 03:37 -19.71300 -41.31505 31187 ft 436 kts 296°
2026-04-17 03:37 -19.69836 -41.34315 31641 ft 434 kts 296°
2026-04-17 03:37 -19.68378 -41.37110 32054 ft 433 kts 296°
2026-04-17 03:37 -19.66917 -41.39910 32433 ft 433 kts 296°
2026-04-17 03:38 -19.65460 -41.42699 32853 ft 432 kts 296°
2026-04-17 03:38 -19.63999 -41.45486 33328 ft 431 kts 295°
2026-04-17 03:38 -19.62543 -41.48251 33772 ft 430 kts 295°
2026-04-17 03:38 -19.61083 -41.51017 34146 ft 429 kts 295°
2026-04-17 03:39 -19.59628 -41.53774 34521 ft 428 kts 295°
2026-04-17 03:39 -19.58179 -41.56518 34937 ft 425 kts 296°
2026-04-17 03:39 -19.56737 -41.59250 35257 ft 425 kts 296°
2026-04-17 03:39 -19.55293 -41.61986 35547 ft 425 kts 296°
2026-04-17 03:40 -19.53853 -41.64714 35895 ft 423 kts 296°
2026-04-17 03:40 -19.52419 -41.67428 36287 ft 420 kts 296°
2026-04-17 03:40 -19.50994 -41.70125 36635 ft 419 kts 296°
2026-04-17 03:40 -19.49572 -41.72815 36968 ft 417 kts 296°
2026-04-17 03:41 -19.48173 -41.75460 37277 ft 416 kts 296°
2026-04-17 03:41 -19.46764 -41.78125 37552 ft 415 kts 296°
2026-04-17 03:41 -19.45346 -41.80805 37717 ft 417 kts 296°
2026-04-17 03:41 -19.43910 -41.83517 37944 ft 415 kts 296°
2026-04-17 03:42 -19.42516 -41.86149 37930 ft 416 kts 296°
2026-04-17 03:42 -19.39686 -41.91491 37947 ft 416 kts 296°
2026-04-17 03:43 -19.36862 -41.96832 37956 ft 416 kts 296°
2026-04-17 03:43 -19.34032 -42.02180 37949 ft 416 kts 296°
2026-04-17 03:44 -19.31130 -42.07488 37958 ft 417 kts 297°
2026-04-17 03:44 -19.28174 -42.12781 37946 ft 418 kts 297°
2026-04-17 03:45 -19.25211 -42.18075 37945 ft 418 kts 297°
2026-04-17 03:45 -19.22225 -42.23357 37941 ft 418 kts 298°
2026-04-17 03:46 -19.19236 -42.28643 37953 ft 419 kts 298°
2026-04-17 03:46 -19.16249 -42.33932 37953 ft 419 kts 298°
2026-04-17 03:47 -19.13257 -42.39225 37954 ft 419 kts 298°
2026-04-17 03:47 -19.10261 -42.44521 37952 ft 419 kts 297°
2026-04-17 03:48 -19.07409 -42.49896 37955 ft 419 kts 296°
2026-04-17 03:48 -19.04621 -42.55306 37967 ft 420 kts 296°
2026-04-17 03:49 -19.01809 -42.60716 37963 ft 420 kts 296°
2026-04-17 03:49 -18.98981 -42.66121 37969 ft 421 kts 296°
2026-04-17 03:50 -18.96144 -42.71532 37976 ft 421 kts 296°
2026-04-17 03:50 -18.93307 -42.76940 37976 ft 421 kts 296°
2026-04-17 03:51 -18.90407 -42.82321 37975 ft 421 kts 298°
2026-04-17 03:51 -18.87444 -42.87657 37977 ft 421 kts 298°
2026-04-17 03:52 -18.84489 -42.92993 37978 ft 421 kts 298°
2026-04-17 03:52 -18.81541 -42.98335 37986 ft 421 kts 298°
2026-04-17 03:53 -18.78613 -43.03637 37974 ft 421 kts 297°
2026-04-17 03:53 -18.75714 -43.09002 37982 ft 421 kts 297°
2026-04-17 03:54 -18.72833 -43.14380 37979 ft 421 kts 297°
2026-04-17 03:54 -18.69944 -43.19750 37987 ft 421 kts 297°
2026-04-17 03:55 -18.67065 -43.25134 37982 ft 421 kts 296°
2026-04-17 03:55 -18.64260 -43.30559 37990 ft 421 kts 296°
2026-04-17 03:56 -18.61427 -43.35969 37992 ft 421 kts 297°
2026-04-17 03:56 -18.58544 -43.41349 37990 ft 422 kts 297°
2026-04-17 03:57 -18.55663 -43.46727 37991 ft 421 kts 297°
2026-04-17 03:57 -18.52785 -43.52112 37995 ft 422 kts 297°
2026-04-17 03:58 -18.49921 -43.57498 37994 ft 421 kts 296°
2026-04-17 03:58 -18.47189 -43.62955 37999 ft 421 kts 296°
2026-04-17 03:59 -18.44394 -43.68376 38005 ft 421 kts 296°
2026-04-17 03:59 -18.41584 -43.73792 38007 ft 422 kts 296°
2026-04-17 04:00 -18.38771 -43.79230 37999 ft 422 kts 296°
2026-04-17 04:00 -18.35964 -43.84661 37987 ft 423 kts 296°
2026-04-17 04:01 -18.33146 -43.90107 37981 ft 424 kts 296°
2026-04-17 04:01 -18.30330 -43.95553 37985 ft 424 kts 296°
2026-04-17 04:02 -18.27510 -44.01005 37977 ft 425 kts 296°
2026-04-17 04:02 -18.24698 -44.06437 37971 ft 426 kts 296°
2026-04-17 04:03 -18.21863 -44.11907 37970 ft 426 kts 296°
2026-04-17 04:03 -18.19022 -44.17385 37968 ft 427 kts 296°
2026-04-17 04:04 -18.16175 -44.22871 37954 ft 427 kts 296°
2026-04-17 04:04 -18.13324 -44.28359 37955 ft 428 kts 296°
2026-04-17 04:05 -18.10470 -44.33848 37951 ft 428 kts 296°
2026-04-17 04:05 -18.07615 -44.39338 37957 ft 428 kts 296°
2026-04-17 04:06 -18.04748 -44.44828 37950 ft 429 kts 296°
2026-04-17 04:06 -18.01824 -44.50284 37958 ft 429 kts 297°
2026-04-17 04:07 -17.98883 -44.55740 37947 ft 429 kts 297°
2026-04-17 04:07 -17.95952 -44.61191 37951 ft 429 kts 297°
2026-04-17 04:08 -17.93023 -44.66643 37948 ft 429 kts 296°
2026-04-17 04:08 -17.90092 -44.72097 37952 ft 429 kts 297°
2026-04-17 04:09 -17.87168 -44.77551 37940 ft 429 kts 296°
2026-04-17 04:09 -17.84465 -44.82761 37942 ft 428 kts 295°
2026-04-17 04:10 -17.81632 -44.88258 37953 ft 428 kts 296°
2026-04-17 04:10 -17.78807 -44.93716 37939 ft 429 kts 296°
2026-04-17 04:11 -17.75954 -44.99211 37948 ft 429 kts 296°
2026-04-17 04:11 -17.73095 -45.04709 37944 ft 429 kts 296°
2026-04-17 04:12 -17.70234 -45.10210 37945 ft 430 kts 296°
2026-04-17 04:12 -17.67836 -45.14816 37947 ft 430 kts 296°
2026-04-17 04:13 -17.64863 -45.20258 37948 ft 431 kts 298°
2026-04-17 04:13 -17.61669 -45.25583 37939 ft 431 kts 299°
2026-04-17 04:14 -17.58463 -45.30895 37945 ft 431 kts 299°
2026-04-17 04:14 -17.55299 -45.36187 37948 ft 431 kts 299°
2026-04-17 04:15 -17.52121 -45.41526 37945 ft 432 kts 299°
2026-04-17 04:15 -17.48945 -45.46863 37945 ft 432 kts 299°
2026-04-17 04:16 -17.45767 -45.52197 37946 ft 432 kts 299°
2026-04-17 04:16 -17.42583 -45.57538 37929 ft 432 kts 299°
2026-04-17 04:17 -17.39400 -45.62872 37940 ft 432 kts 299°
2026-04-17 04:17 -17.36212 -45.68210 37936 ft 432 kts 299°
2026-04-17 04:18 -17.33021 -45.73550 37937 ft 433 kts 299°
2026-04-17 04:18 -17.29824 -45.78892 37937 ft 433 kts 299°
2026-04-17 04:19 -17.26618 -45.84229 37922 ft 433 kts 299°
2026-04-17 04:19 -17.23407 -45.89568 37929 ft 433 kts 299°
2026-04-17 04:20 -17.20197 -45.94905 37927 ft 433 kts 299°
2026-04-17 04:20 -17.16991 -46.00233 37929 ft 433 kts 299°
2026-04-17 04:21 -17.13781 -46.05562 37926 ft 433 kts 299°
2026-04-17 04:21 -17.10572 -46.10887 37921 ft 433 kts 299°
2026-04-17 04:22 -17.07364 -46.16205 37918 ft 433 kts 299°
2026-04-17 04:22 -17.04152 -46.21526 37927 ft 432 kts 299°
2026-04-17 04:23 -17.00941 -46.26841 37923 ft 432 kts 299°
2026-04-17 04:23 -16.97732 -46.32150 37923 ft 432 kts 299°
2026-04-17 04:24 -16.94517 -46.37463 37924 ft 432 kts 299°
2026-04-17 04:24 -16.91304 -46.42770 37914 ft 432 kts 299°
2026-04-17 04:25 -16.88091 -46.48073 37893 ft 433 kts 299°
2026-04-17 04:25 -16.86468 -46.50752 37397 ft 438 kts 299°
2026-04-17 04:25 -16.84843 -46.53432 36830 ft 437 kts 299°
2026-04-17 04:25 -16.83220 -46.56105 36301 ft 435 kts 300°
2026-04-17 04:26 -16.81583 -46.58758 35599 ft 438 kts 301°
2026-04-17 04:26 -16.79878 -46.61408 34921 ft 440 kts 301°
2026-04-17 04:26 -16.78144 -46.64055 34211 ft 443 kts 302°
2026-04-17 04:26 -16.76394 -46.66715 33440 ft 446 kts 302°
2026-04-17 04:27 -16.74635 -46.69394 32685 ft 448 kts 302°
2026-04-17 04:27 -16.72877 -46.72079 31926 ft 449 kts 302°
2026-04-17 04:27 -16.71114 -46.74779 31153 ft 451 kts 302°
2026-04-17 04:27 -16.69351 -46.77485 30530 ft 449 kts 302°
2026-04-17 04:28 -16.67597 -46.80178 29901 ft 448 kts 302°
2026-04-17 04:28 -16.65858 -46.82848 29256 ft 443 kts 302°
2026-04-17 04:28 -16.64132 -46.85497 28627 ft 439 kts 302°
2026-04-17 04:28 -16.62448 -46.88082 28032 ft 434 kts 302°
2026-04-17 04:29 -16.60741 -46.90701 27441 ft 429 kts 302°
2026-04-17 04:29 -16.59095 -46.93225 26874 ft 425 kts 303°
2026-04-17 04:29 -16.57443 -46.95758 26300 ft 420 kts 303°
2026-04-17 04:29 -16.55808 -46.98264 25745 ft 416 kts 303°
2026-04-17 04:30 -16.54186 -47.00749 25167 ft 413 kts 303°
2026-04-17 04:30 -16.52578 -47.03211 24594 ft 410 kts 303°
2026-04-17 04:30 -16.50979 -47.05660 24014 ft 407 kts 303°
2026-04-17 04:30 -16.49394 -47.08086 23437 ft 404 kts 303°
2026-04-17 04:31 -16.47817 -47.10499 22786 ft 401 kts 303°
2026-04-17 04:31 -16.46256 -47.12887 22187 ft 396 kts 303°
2026-04-17 04:31 -16.44715 -47.15244 21619 ft 392 kts 303°
2026-04-17 04:31 -16.43185 -47.17582 21060 ft 388 kts 304°
2026-04-17 04:32 -16.41499 -47.19754 20429 ft 386 kts 314°
2026-04-17 04:32 -16.39484 -47.21633 19703 ft 389 kts 319°
2026-04-17 04:32 -16.37409 -47.23443 19066 ft 388 kts 320°
2026-04-17 04:32 -16.35338 -47.25231 18487 ft 386 kts 320°
2026-04-17 04:33 -16.33282 -47.27013 17875 ft 383 kts 319°
2026-04-17 04:33 -16.31252 -47.28786 17275 ft 379 kts 319°
2026-04-17 04:33 -16.29251 -47.30546 16705 ft 375 kts 319°
2026-04-17 04:33 -16.27276 -47.32290 16156 ft 370 kts 319°
2026-04-17 04:34 -16.23395 -47.35728 15077 ft 362 kts 318°
2026-04-17 04:34 -16.21487 -47.37418 14547 ft 358 kts 318°
2026-04-17 04:34 -16.19601 -47.39091 14021 ft 355 kts 318°
2026-04-17 04:35 -16.17728 -47.40751 13428 ft 352 kts 318°
2026-04-17 04:35 -16.15871 -47.42397 12860 ft 349 kts 318°
2026-04-17 04:35 -16.14033 -47.44025 12313 ft 345 kts 318°
2026-04-17 04:35 -16.12663 -47.45238 11910 ft 342 kts 319°
2026-04-17 04:36 -16.12612 -47.45284 11901 ft 342 kts 318°
2026-04-17 04:36 -16.10810 -47.46879 11361 ft 337 kts 319°
2026-04-17 04:36 -16.10553 -47.47107 11297 ft 336 kts 319°
2026-04-17 04:37 -16.09257 -47.48254 10915 ft 334 kts 319°
2026-04-17 04:37 -16.07495 -47.49813 10446 ft 331 kts 319°
2026-04-17 04:37 -16.05780 -47.51331 10285 ft 317 kts 319°
2026-04-17 04:38 -16.04130 -47.52790 10137 ft 305 kts 319°
2026-04-17 04:38 -16.02547 -47.54190 10003 ft 293 kts 319°
2026-04-17 04:38 -16.01016 -47.55545 9713 ft 288 kts 319°
2026-04-17 04:38 -15.99496 -47.56889 9350 ft 285 kts 319°
2026-04-17 04:39 -15.97988 -47.58222 8980 ft 284 kts 320°
2026-04-17 04:39 -15.96491 -47.59545 8607 ft 282 kts 320°
2026-04-17 04:39 -15.95008 -47.60840 8387 ft 275 kts 322°
2026-04-17 04:39 -15.93514 -47.62013 8219 ft 263 kts 324°
2026-04-17 04:40 -15.92064 -47.63119 8106 ft 253 kts 324°
2026-04-17 04:40 -15.90693 -47.64170 8006 ft 238 kts 324°
2026-04-17 04:40 -15.89401 -47.65166 7875 ft 225 kts 324°
2026-04-17 04:40 -15.88177 -47.66112 7722 ft 214 kts 324°
2026-04-17 04:41 -15.87023 -47.67054 7514 ft 211 kts 313°
2026-04-17 04:41 -15.86436 -47.68419 7286 ft 210 kts 274°
2026-04-17 04:41 -15.86453 -47.69902 7095 ft 202 kts 266°
2026-04-17 04:41 -15.86553 -47.71334 6864 ft 196 kts 265°
2026-04-17 04:42 -15.86658 -47.72722 6629 ft 190 kts 265°
2026-04-17 04:42 -15.86758 -47.74079 6414 ft 188 kts 265°
2026-04-17 04:42 -15.86852 -47.75428 6208 ft 187 kts 265°
2026-04-17 04:42 -15.86942 -47.76771 5988 ft 186 kts 265°
2026-04-17 04:43 -15.87034 -47.78118 5928 ft 187 kts 265°
2026-04-17 04:43 -15.87125 -47.79472 5899 ft 188 kts 266°
2026-04-17 04:43 -15.87213 -47.80814 5899 ft 184 kts 266°
2026-04-17 04:43 -15.87298 -47.82110 5906 ft 176 kts 266°
2026-04-17 04:44 -15.87379 -47.83357 5631 ft 166 kts 266°
2026-04-17 04:44 -15.87454 -47.84513 5288 ft 157 kts 266°
2026-04-17 04:44 -15.87528 -47.85653 4799 ft 158 kts 266°
2026-04-17 04:44 -15.87602 -47.86788 4365 ft 164 kts 266°
2026-04-17 04:45 -15.87678 -47.87954 4954 ft 152 kts 265°
2026-04-17 04:45 -15.87762 -47.89158 5255 ft 189 kts 266°
2026-04-17 04:45 -15.87856 -47.90633 5624 ft 221 kts 266°
2026-04-17 04:45 -15.88136 -47.92312 5855 ft 253 kts 243°
2026-04-17 04:46 -15.89165 -47.93837 6478 ft 263 kts 238°
2026-04-17 04:46 -15.89942 -47.95627 6932 ft 284 kts 248°
2026-04-17 04:46 -15.90649 -47.97537 6927 ft 277 kts 248°
2026-04-17 04:46 -15.91332 -47.99346 6954 ft 261 kts 248°
2026-04-17 04:47 -15.91992 -48.01043 6961 ft 245 kts 247°
2026-04-17 04:47 -15.92623 -48.02629 6968 ft 231 kts 247°
2026-04-17 04:47 -15.93237 -48.04148 6969 ft 227 kts 246°
2026-04-17 04:47 -15.93858 -48.05667 6978 ft 231 kts 246°
2026-04-17 04:48 -15.94495 -48.07219 6980 ft 236 kts 246°
2026-04-17 04:48 -15.95146 -48.08800 6972 ft 238 kts 246°
2026-04-17 04:48 -15.95799 -48.10381 6953 ft 238 kts 246°
2026-04-17 04:48 -15.96450 -48.11953 6946 ft 236 kts 246°
2026-04-17 04:49 -15.97410 -48.13355 6942 ft 254 kts 213°
2026-04-17 04:49 -15.99153 -48.13967 6935 ft 275 kts 179°
2026-04-17 04:49 -16.00996 -48.13499 6937 ft 276 kts 150°
2026-04-17 04:49 -16.02405 -48.12180 6926 ft 274 kts 122°
2026-04-17 04:50 -16.02988 -48.10334 6928 ft 271 kts 91°
2026-04-17 04:50 -16.02831 -48.08391 6942 ft 270 kts 82°
2026-04-17 04:50 -16.02523 -48.06465 6951 ft 270 kts 80°
2026-04-17 04:50 -16.02195 -48.04546 6950 ft 270 kts 80°
2026-04-17 04:51 -16.01871 -48.02628 6952 ft 270 kts 80°
2026-04-17 04:51 -16.01555 -48.00702 6957 ft 270 kts 81°
2026-04-17 04:51 -16.01245 -47.98771 6964 ft 270 kts 81°
2026-04-17 04:51 -16.00942 -47.96844 6968 ft 271 kts 81°
2026-04-17 04:52 -16.00645 -47.94939 6975 ft 271 kts 81°
2026-04-17 04:52 -16.00348 -47.93007 6977 ft 271 kts 81°
2026-04-17 04:52 -16.00051 -47.91076 6985 ft 271 kts 81°
2026-04-17 04:52 -15.99756 -47.89144 6987 ft 271 kts 81°
2026-04-17 04:53 -15.99461 -47.87206 6983 ft 272 kts 81°
2026-04-17 04:53 -15.99165 -47.85267 6983 ft 271 kts 81°
2026-04-17 04:53 -15.98870 -47.83327 6980 ft 272 kts 81°
2026-04-17 04:55 -15.96806 -47.69785 6872 ft 269 kts 81°
2026-04-17 04:55 -15.96513 -47.67867 6877 ft 269 kts 81°
2026-04-17 04:55 -15.96220 -47.65950 6879 ft 268 kts 81°
2026-04-17 04:56 -15.95920 -47.64040 6871 ft 268 kts 78°
2026-04-17 04:56 -15.95132 -47.62299 6874 ft 269 kts 50°
2026-04-17 04:56 -15.93650 -47.61139 6868 ft 272 kts 24°
2026-04-17 04:56 -15.91796 -47.60729 6848 ft 275 kts
2026-04-17 04:57 -15.90563 -47.60941 6827 ft 269 kts 339°
2026-04-17 04:57 -15.89117 -47.62028 6796 ft 250 kts 311°
2026-04-17 04:57 -15.88197 -47.63476 6757 ft 232 kts 298°
2026-04-17 04:57 -15.87511 -47.64925 6706 ft 215 kts 296°
2026-04-17 04:58 -15.86889 -47.66273 6667 ft 198 kts 296°
2026-04-17 04:58 -15.86404 -47.67580 6632 ft 193 kts 274°
2026-04-17 04:58 -15.86482 -47.68956 6662 ft 192 kts 265°
2026-04-17 04:58 -15.86572 -47.70355 6648 ft 196 kts 266°
2026-04-17 04:59 -15.86656 -47.71773 6647 ft 198 kts 266°
2026-04-17 04:59 -15.86744 -47.73204 6581 ft 199 kts 266°
2026-04-17 04:59 -15.86835 -47.74648 6349 ft 201 kts 266°
2026-04-17 04:59 -15.86925 -47.76081 6100 ft 197 kts 266°
2026-04-17 05:00 -15.87013 -47.77486 5836 ft 193 kts 266°
2026-04-17 05:00 -15.87101 -47.78875 5607 ft 193 kts 266°
2026-04-17 05:00 -15.87189 -47.80273 5356 ft 192 kts 266°
2026-04-17 05:00 -15.87274 -47.81607 5247 ft 180 kts 266°
2026-04-17 05:01 -15.87354 -47.82878 5010 ft 172 kts 266°
2026-04-17 05:01 -15.87430 -47.84084 4797 ft 166 kts 266°
2026-04-17 05:01 -15.87505 -47.85257 4606 ft 161 kts 266°
2026-04-17 05:01 -15.87581 -47.86417 4351 ft 159 kts 266°
2026-04-17 05:02 -15.87658 -47.87547 4146 ft 154 kts 268°
2026-04-17 05:02 -15.87713 -47.88639 3956 ft 149 kts 266°
2026-04-17 05:02 -15.87788 -47.89707 3734 ft 146 kts 267°
2026-04-17 05:02 -15.87856 -47.90755 3508 ft 145 kts 266°
2026-04-17 05:03 -15.87921 -47.91757 3455 ft 128 kts 265°
2026-04-17 05:03 -15.87967 -47.92474 3472 ft 68 kts 266°
2026-04-17 05:03 -15.87995 -47.92892 3473 ft 53 kts 266°
2026-04-17 05:03 -15.88011 -47.93183 3477 ft 20 kts 274°
2026-04-17 05:04 -15.87976 -47.93319 3480 ft 19 kts 304°
2026-04-17 05:04 -15.87867 -47.93377 3485 ft 19 kts 23°
2026-04-17 05:04 -15.87838 -47.93255 3481 ft 18 kts 88°
2026-04-17 05:04 -15.87831 -47.93126 3476 ft 18 kts 86°
2026-04-17 05:05 -15.87823 -47.93002 3474 ft 17 kts 86°
2026-04-17 05:05 -15.87815 -47.92882 3474 ft 16 kts 86°
2026-04-17 05:05 -15.87807 -47.92765 3473 ft 17 kts 86°
2026-04-17 05:05 -15.87798 -47.92639 3471 ft 19 kts 85°
2026-04-17 05:06 -15.87789 -47.92498 3469 ft 21 kts 86°
2026-04-17 05:06 -15.87780 -47.92343 3469 ft 23 kts 86°
2026-04-17 05:06 -15.87769 -47.92170 3466 ft 25 kts 86°
2026-04-17 05:06 -15.87758 -47.91989 3462 ft 25 kts 86°
2026-04-17 05:07 -15.87746 -47.91817 3460 ft 23 kts 85°
2026-04-17 05:07 -15.87733 -47.91673 3459 ft 16 kts 70°
2026-04-17 05:07 -15.87647 -47.91617 3458 ft 15 kts 65°
2026-04-17 05:07 -15.87572 -47.91556 3458 ft 16 kts 358°
2026-04-17 05:08 -15.87464 -47.91567 3468 ft 15 kts 354°
2026-04-17 05:08 -15.87909 -47.91586 3447 ft 0 kts 267°